Location: Bergnershof
(48.9468°N, 10.9431°E)
Time: 00:12:21
(UTC+00:00)

Cosmos 2154 Rocket - Pass Details

Date: 03 March 2021
Orbit: 966 x 996 km, 82.9° (Epoch: 13 April)

Event Time Altitude Azimuth Distance (km) Brightness Sun altitude
Rises 17:34:28 0° 169° (S) 3,657 6.9 -6.0°
Reaches altitude 10° 17:37:02 10° 164° (SSE) 2,710 6.2 -6.4°
Maximum altitude 17:42:59 50° 91° (E) 1,221 4.2 -7.4°
Drops below altitude 10° 17:48:56 10° 18° (NNE) 2,718 6.2 -8.3°
Sets 17:51:30 0° 14° (NNE) 3,669 6.9 -8.8°
